EW7175 Weather Reports


time (UTC)temp
F
wind
direction
speed
knots
gust
knots
rain 1hr
in
rain 24hr
in
rain mn
in
humidity
%
barometer
mb
20260504223002 80 162 0.0 0.0 0.00 0.00 0.00 63 1009.2
20260504221606 80 166 0.0 0.0 0.00 0.00 0.00 61 1009.4
20260504220059 80 155 0.0 0.0 0.00 0.00 0.00 60 1009.5
20260504214602 81 63 0.0 0.0 0.00 0.00 0.00 60 1009.6
20260504213103 81 223 0.0 0.0 0.00 0.00 0.00 60 1009.7
20260504211555 82 200 0.0 0.0 0.00 0.00 0.00 59 1009.9
20260504204633 83 221 0.0 0.0 0.00 0.00 0.00 56 1010.5
20260504203050 83 156 0.0 0.0 0.00 0.00 0.00 55 1010.6
20260504201546 82 178 0.0 0.0 0.00 0.00 0.00 57 1010.9
20260504200043 82 153 0.0 0.0 0.00 0.00 0.00 55 1011.2
20260504194548 81 173 0.0 0.0 0.00 0.00 0.00 56 1011.3
20260504193041 81 149 0.0 0.0 0.00 0.00 0.00 57 1011.5
20260504191536 82 264 0.0 0.0 0.00 0.00 0.00 55 1011.8
20260504190037 80 169 0.0 0.0 0.00 0.00 0.00 57 1011.9
20260504184532 80 244 0.0 0.0 0.00 0.00 0.00 58 1012.2
20260504183032 80 209 0.0 0.0 0.00 0.00 0.00 57 1012.3
20260504181529 81 174 0.0 0.0 0.00 0.00 0.00 56 1012.2
20260504180025 80 178 0.0 6.1 0.00 0.00 0.00 57 1012.7
20260504174524 79 165 0.0 0.9 0.00 0.00 0.00 58 1012.7
20260504173021 79 154 0.0 0.0 0.00 0.00 0.00 60 1013.0
20260504171534 78 173 0.0 0.0 0.00 0.00 0.00 59 1013.2
20260504081503 61 165 0.0 0.0 0.00 0.00 0.00 80 1014.8
20260504044541 65 162 0.0 0.0 0.00 0.00 0.00 68 1016.8
20260504043039 66 161 0.0 0.0 0.00 0.00 0.00 67 1016.8
20260504041536 66 161 0.0 0.0 0.00 0.00 0.00 65 1016.9
20260504040035 67 162 0.0 0.0 0.00 0.00 0.00 62 1016.9
20260504034540 67 163 0.0 0.0 0.00 0.00 0.00 60 1016.8
20260504033035 68 165 0.0 0.0 0.00 0.00 0.00 59 1017.0
20260504031534 69 171 0.0 0.0 0.00 0.00 0.00 58 1016.9
20260504030040 70 173 0.0 0.0 0.00 0.00 0.00 55 1016.6
20260504024533 70 173 0.0 0.0 0.00 0.00 0.00 54 1016.6
20260504023033 71 207 0.0 0.0 0.00 0.00 0.00 53 1016.5
20260504021534 71 188 0.0 0.0 0.00 0.00 0.00 53 1016.5
20260504020036 71 136 0.0 0.0 0.00 0.00 0.00 52 1016.2
20260504014536 72 183 0.0 0.0 0.00 0.00 0.00 51 1016.3
20260504013034 72 171 0.0 0.0 0.00 0.00 0.00 50 1016.1
20260504011531 73 173 0.0 0.0 0.00 0.00 0.00 52 1015.7
20260504010031 74 173 0.0 0.0 0.00 0.00 0.00 49 1015.9
20260504004530 74 147 0.0 0.0 0.00 0.00 0.00 48 1015.9
20260504003029 76 193 0.0 0.0 0.00 0.00 0.00 45 1016.0
20260504001529 78 150 0.0 2.6 0.00 0.00 0.00 39 1016.0
20260504000027 79 149 0.9 2.6 0.00 0.00 0.00 37 1016.0
20260503234541 79 167 1.7 4.3 0.00 0.00 0.00 35 1016.1
20260503233026 80 155 0.0 4.3 0.00 0.00 0.00 39 1016.1
20260503231527 80 163 0.9 4.3 0.00 0.00 0.00 38 1016.2
20260503230026 80 152 0.9 5.2 0.00 0.00 0.00 37 1016.2
20260503224523 81 221 1.7 4.3 0.00 0.00 0.00 35 1016.4